Precipitable_Water
0.46 0.48 0.48 0.50 0.48 0.48 0.48 0.46 0.46 0.48 0.50 0.54 0.56 0.56 0.62 0.68 0.74 0.80 0.84 0.86 0.90 0.90 0.92 0.94 0.96 0.98 0.98 1.01 1.03 1.07 1.11 1.11 1.13 1.15 1.15 1.15 1.15 1.17 1.19 1.17 1.17 1.17 1.17 1.17 1.15 1.15 1.15 1.13 1.13 1.13 1.15 1.17 1.19 1.19 1.17 1.17 1.15 1.13 1.11 1.09 1.07 1.03 1.03 1.03 1.05 1.05 1.07 1.09 1.07 1.07 1.07 1.07 1.05 1.05 1.01 0.99 0.99 0.99 0.99 0.99 1.01 1.03 1.03 1.01 1.01 1.03
0.42 0.44 0.46 0.48 0.48 0.46 0.44 0.44 0.44 0.44 0.44 0.48 0.50 0.54 0.58 0.62 0.66 0.70 0.72 0.78 0.82 0.86 0.88 0.90 0.92 0.94 0.94 0.98 1.01 1.03 1.05 1.05 1.07 1.11 1.11 1.11 1.11 1.13 1.15 1.13 1.13 1.15 1.15 1.15 1.15 1.15 1.15 1.13 1.13 1.13 1.13 1.15 1.15 1.17 1.15 1.15 1.15 1.13 1.09 1.07 1.03 1.01 1.01 1.01 1.03 1.05 1.07 1.07 1.07 1.07 1.07 1.05 1.05 1.03 0.99 0.99 0.99 0.99 0.99 1.01 1.01 1.01 1.01 1.01 1.01 1.03
0.36 0.40 0.38 0.42 0.44 0.44 0.44 0.44 0.44 0.44 0.44 0.46 0.48 0.50 0.54 0.56 0.60 0.64 0.66 0.72 0.76 0.82 0.82 0.86 0.88 0.92 0.92 0.96 0.98 1.01 1.03 1.03 1.05 1.05 1.07 1.07 1.07 1.09 1.11 1.09 1.09 1.11 1.13 1.11 1.13 1.13 1.13 1.13 1.11 1.11 1.11 1.11 1.13 1.13 1.13 1.13 1.13 1.11 1.09 1.07 1.03 1.01 1.01 1.01 1.01 1.03 1.05 1.05 1.05 1.05 1.05 1.03 1.01 0.99 0.98 0.98 0.98 0.99 0.99 0.99 1.01 1.01 1.01 1.01 1.01 1.01
0.35 0.35 0.36 0.38 0.40 0.40 0.42 0.42 0.44 0.46 0.46 0.46 0.48 0.48 0.50 0.52 0.54 0.58 0.60 0.66 0.72 0.76 0.78 0.82 0.86 0.86 0.88 0.92 0.96 0.98 0.99 1.01 1.01 1.03 1.05 1.03 1.05 1.05 1.05 1.05 1.05 1.07 1.09 1.09 1.09 1.11 1.11 1.11 1.11 1.09 1.07 1.07 1.09 1.09 1.09 1.09 1.09 1.09 1.07 1.05 1.03 1.01 0.99 0.99 0.99 0.99 1.01 1.03 1.03 1.03 1.03 0.99 0.99 0.98 0.98 0.98 0.98 0.99 0.99 0.99 1.01 1.01 1.01 1.01 1.01 1.01
0.35 0.36 0.40 0.40 0.40 0.40 0.40 0.42 0.44 0.44 0.44 0.46 0.46 0.46 0.46 0.48 0.50 0.50 0.54 0.60 0.64 0.68 0.70 0.78 0.82 0.84 0.84 0.88 0.90 0.94 0.96 0.98 0.99 1.01 1.01 1.03 1.03 1.03 1.03 1.03 1.05 1.05 1.07 1.07 1.07 1.09 1.09 1.09 1.09 1.09 1.07 1.05 1.07 1.07 1.05 1.05 1.07 1.07 1.03 1.03 1.03 1.01 0.99 0.99 0.99 0.98 0.99 1.01 0.99 0.99 0.99 0.98 0.98 0.98 0.96 0.96 0.96 0.98 0.99 0.99 0.99 1.01 1.01 1.01 0.99 0.99
0.38 0.40 0.44 0.42 0.40 0.40 0.42 0.44 0.44 0.44 0.42 0.44 0.42 0.42 0.44 0.46 0.48 0.48 0.50 0.54 0.58 0.60 0.64 0.72 0.76 0.80 0.82 0.86 0.88 0.92 0.94 0.94 0.96 0.98 0.99 1.01 1.01 1.03 1.03 1.03 1.03 1.05 1.05 1.07 1.07 1.07 1.09 1.09 1.09 1.07 1.07 1.05 1.05 1.03 1.03 1.03 1.03 1.03 1.01 1.01 1.01 1.01 0.99 0.99 0.98 0.96 0.96 0.98 0.98 0.96 0.98 0.96 0.96 0.96 0.96 0.96 0.96 0.98 0.98 0.99 0.99 0.99 1.01 1.01 0.99 0.99
0.42 0.44 0.46 0.44 0.44 0.44 0.44 0.46 0.46 0.44 0.42 0.40 0.40 0.40 0.42 0.44 0.44 0.46 0.48 0.52 0.54 0.58 0.60 0.66 0.70 0.74 0.76 0.82 0.86 0.88 0.90 0.94 0.96 0.96 0.98 0.98 0.99 1.01 1.01 1.01 1.03 1.03 1.05 1.05 1.05 1.07 1.07 1.07 1.07 1.07 1.07 1.05 1.03 1.03 1.01 0.99 0.99 0.99 0.98 0.98 0.99 0.99 0.98 0.98 0.96 0.94 0.94 0.94 0.94 0.94 0.96 0.94 0.96 0.96 0.94 0.94 0.96 0.96 0.98 0.98 0.98 0.99 0.99 0.99 0.99 0.98
0.42 0.44 0.42 0.44 0.44 0.46 0.46 0.44 0.44 0.44 0.42 0.40 0.38 0.38 0.38 0.40 0.40 0.42 0.46 0.48 0.52 0.54 0.58 0.62 0.68 0.72 0.74 0.78 0.82 0.84 0.88 0.90 0.92 0.94 0.96 0.98 0.98 0.99 0.99 0.99 1.01 1.01 1.03 1.03 1.05 1.05 1.07 1.05 1.05 1.07 1.07 1.05 1.03 1.01 0.99 0.98 0.96 0.96 0.94 0.94 0.96 0.96 0.96 0.96 0.94 0.92 0.92 0.94 0.92 0.92 0.94 0.94 0.94 0.94 0.94 0.94 0.96 0.96 0.96 0.96 0.98 0.98 0.99 0.99 0.99 0.98
0.38 0.38 0.38 0.40 0.42 0.42 0.42 0.40 0.42 0.44 0.44 0.42 0.40 0.38 0.36 0.38 0.38 0.40 0.42 0.44 0.46 0.50 0.52 0.56 0.62 0.68 0.70 0.76 0.80 0.84 0.86 0.86 0.88 0.90 0.92 0.94 0.96 0.98 0.98 0.99 0.99 1.01 1.01 1.03 1.03 1.05 1.05 1.03 1.03 1.03 1.05 1.03 1.01 1.01 0.98 0.96 0.96 0.94 0.92 0.92 0.94 0.94 0.92 0.92 0.92 0.92 0.92 0.92 0.92 0.92 0.92 0.92 0.94 0.94 0.94 0.94 0.94 0.94 0.94 0.96 0.96 0.98 0.98 0.98 0.98 0.96
0.36 0.36 0.38 0.40 0.42 0.40 0.38 0.38 0.40 0.44 0.46 0.46 0.44 0.42 0.42 0.38 0.36 0.38 0.38 0.40 0.42 0.46 0.48 0.52 0.56 0.60 0.62 0.68 0.72 0.78 0.84 0.86 0.88 0.90 0.92 0.92 0.94 0.96 0.96 0.98 0.98 0.99 1.01 1.01 1.01 1.03 1.03 1.01 1.01 1.01 1.01 0.99 0.99 0.99 0.98 0.96 0.94 0.92 0.90 0.90 0.90 0.90 0.90 0.90 0.90 0.90 0.90 0.90 0.90 0.90 0.92 0.92 0.92 0.94 0.94 0.92 0.92 0.94 0.94 0.94 0.96 0.96 0.98 0.98 0.96 0.96
0.36 0.38 0.38 0.38 0.40 0.40 0.40 0.42 0.44 0.46 0.48 0.48 0.46 0.46 0.46 0.42 0.40 0.38 0.36 0.38 0.40 0.42 0.44 0.48 0.52 0.54 0.56 0.60 0.66 0.72 0.78 0.78 0.82 0.86 0.90 0.92 0.94 0.94 0.96 0.96 0.96 0.98 0.99 0.99 0.99 1.01 1.01 0.99 0.99 0.99 0.99 0.98 0.98 0.98 0.96 0.94 0.92 0.90 0.88 0.88 0.88 0.88 0.88 0.88 0.88 0.90 0.90 0.90 0.90 0.90 0.90 0.92 0.92 0.92 0.92 0.92 0.92 0.92 0.94 0.94 0.94 0.96 0.96 0.96 0.96 0.94
0.33 0.35 0.35 0.36 0.38 0.40 0.42 0.44 0.46 0.48 0.48 0.46 0.44 0.40 0.42 0.42 0.42 0.40 0.38 0.36 0.36 0.38 0.40 0.46 0.50 0.54 0.56 0.58 0.62 0.68 0.72 0.72 0.74 0.80 0.84 0.86 0.88 0.90 0.92 0.94 0.94 0.96 0.98 0.98 0.98 0.99 0.99 0.98 0.98 0.98 0.98 0.96 0.96 0.96 0.96 0.94 0.92 0.90 0.88 0.88 0.86 0.88 0.88 0.88 0.88 0.90 0.90 0.90 0.90 0.90 0.90 0.90 0.90 0.90 0.90 0.90 0.90 0.92 0.92 0.94 0.94 0.94 0.94 0.94 0.94 0.94
0.31 0.31 0.33 0.35 0.36 0.38 0.40 0.40 0.42 0.44 0.46 0.42 0.38 0.36 0.38 0.40 0.42 0.42 0.40 0.38 0.36 0.38 0.40 0.42 0.44 0.48 0.50 0.58 0.62 0.64 0.68 0.68 0.70 0.74 0.78 0.80 0.82 0.86 0.88 0.88 0.88 0.92 0.94 0.94 0.94 0.96 0.98 0.96 0.96 0.96 0.96 0.94 0.94 0.94 0.94 0.94 0.92 0.90 0.88 0.86 0.86 0.86 0.86 0.86 0.88 0.88 0.90 0.90 0.90 0.90 0.90 0.90 0.90 0.90 0.90 0.90 0.90 0.90 0.92 0.92 0.92 0.92 0.92 0.92 0.92 0.92
0.27 0.27 0.29 0.31 0.33 0.35 0.35 0.36 0.38 0.38 0.40 0.40 0.40 0.40 0.40 0.40 0.40 0.40 0.40 0.38 0.38 0.40 0.42 0.42 0.42 0.44 0.46 0.52 0.56 0.60 0.62 0.62 0.66 0.70 0.74 0.74 0.78 0.82 0.84 0.82 0.84 0.86 0.90 0.88 0.90 0.92 0.94 0.94 0.94 0.94 0.94 0.94 0.92 0.92 0.94 0.92 0.92 0.90 0.88 0.86 0.86 0.86 0.86 0.86 0.88 0.88 0.88 0.90 0.90 0.90 0.90 0.90 0.90 0.88 0.90 0.88 0.90 0.90 0.90 0.90 0.92 0.92 0.92 0.92 0.92 0.92
0.25 0.27 0.27 0.27 0.29 0.31 0.33 0.35 0.36 0.36 0.38 0.40 0.42 0.42 0.42 0.42 0.42 0.40 0.38 0.38 0.38 0.40 0.40 0.40 0.42 0.44 0.44 0.50 0.54 0.58 0.60 0.60 0.60 0.62 0.64 0.64 0.68 0.74 0.78 0.78 0.80 0.84 0.86 0.84 0.86 0.90 0.92 0.92 0.92 0.92 0.92 0.92 0.92 0.92 0.92 0.92 0.92 0.90 0.88 0.88 0.86 0.86 0.86 0.86 0.88 0.88 0.88 0.90 0.88 0.88 0.88 0.88 0.88 0.88 0.88 0.88 0.88 0.90 0.90 0.90 0.90 0.92 0.92 0.92 0.92 0.92
0.25 0.25 0.25 0.25 0.27 0.29 0.31 0.33 0.35 0.36 0.38 0.40 0.42 0.42 0.42 0.40 0.40 0.40 0.38 0.38 0.38 0.38 0.38 0.36 0.36 0.38 0.42 0.48 0.52 0.56 0.58 0.56 0.56 0.56 0.58 0.58 0.62 0.70 0.76 0.74 0.74 0.76 0.80 0.80 0.80 0.84 0.90 0.90 0.90 0.90 0.92 0.92 0.92 0.92 0.92 0.92 0.90 0.90 0.88 0.88 0.86 0.86 0.86 0.86 0.86 0.88 0.88 0.88 0.88 0.88 0.88 0.88 0.88 0.88 0.88 0.88 0.88 0.88 0.90 0.90 0.90 0.92 0.92 0.92 0.92 0.90
0.25 0.23 0.25 0.25 0.25 0.27 0.29 0.33 0.35 0.36 0.36 0.40 0.42 0.42 0.42 0.40 0.40 0.40 0.40 0.38 0.38 0.38 0.36 0.36 0.35 0.33 0.33 0.36 0.42 0.48 0.52 0.50 0.52 0.52 0.54 0.54 0.60 0.66 0.72 0.70 0.70 0.72 0.76 0.76 0.78 0.82 0.84 0.86 0.86 0.88 0.90 0.90 0.90 0.92 0.92 0.90 0.90 0.90 0.88 0.88 0.86 0.86 0.86 0.86 0.86 0.88 0.88 0.88 0.88 0.88 0.88 0.88 0.88 0.88 0.88 0.88 0.88 0.88 0.88 0.90 0.90 0.90 0.92 0.92 0.90 0.90
0.23 0.23 0.23 0.23 0.25 0.25 0.29 0.31 0.33 0.36 0.38 0.40 0.42 0.42 0.44 0.44 0.44 0.44 0.40 0.40 0.38 0.36 0.36 0.36 0.35 0.33 0.33 0.33 0.38 0.44 0.50 0.48 0.48 0.48 0.50 0.48 0.50 0.56 0.68 0.66 0.68 0.70 0.72 0.74 0.78 0.80 0.84 0.84 0.86 0.86 0.88 0.90 0.90 0.92 0.92 0.90 0.90 0.90 0.90 0.88 0.88 0.86 0.86 0.86 0.86 0.86 0.88 0.88 0.88 0.88 0.86 0.88 0.88 0.88 0.88 0.88 0.88 0.88 0.88 0.88 0.90 0.90 0.90 0.90 0.90 0.88
0.23 0.23 0.23 0.23 0.23 0.25 0.27 0.29 0.33 0.35 0.38 0.38 0.40 0.42 0.44 0.44 0.46 0.44 0.44 0.42 0.40 0.38 0.38 0.36 0.35 0.35 0.35 0.35 0.38 0.42 0.48 0.46 0.46 0.46 0.46 0.44 0.48 0.52 0.58 0.60 0.62 0.64 0.66 0.68 0.70 0.76 0.82 0.84 0.86 0.86 0.88 0.90 0.90 0.92 0.92 0.90 0.90 0.90 0.90 0.88 0.88 0.86 0.86 0.86 0.86 0.86 0.88 0.88 0.88 0.88 0.86 0.86 0.86 0.88 0.88 0.88 0.86 0.86 0.86 0.86 0.88 0.88 0.90 0.90 0.88 0.88
0.23 0.23 0.23 0.23 0.23 0.25 0.25 0.25 0.27 0.31 0.35 0.38 0.40 0.40 0.42 0.44 0.46 0.46 0.44 0.42 0.42 0.40 0.40 0.38 0.38 0.36 0.38 0.36 0.40 0.44 0.48 0.46 0.44 0.42 0.42 0.42 0.46 0.52 0.56 0.58 0.58 0.60 0.62 0.64 0.70 0.74 0.78 0.80 0.82 0.84 0.86 0.88 0.88 0.90 0.92 0.90 0.90 0.90 0.90 0.88 0.88 0.88 0.88 0.86 0.86 0.86 0.86 0.88 0.88 0.86 0.86 0.86 0.86 0.86 0.86 0.86 0.86 0.84 0.86 0.86 0.86 0.88 0.88 0.88 0.88 0.86
0.23 0.23 0.25 0.25 0.25 0.23 0.23 0.23 0.25 0.27 0.31 0.33 0.35 0.36 0.38 0.42 0.44 0.44 0.46 0.44 0.44 0.42 0.40 0.38 0.38 0.38 0.40 0.40 0.40 0.42 0.46 0.44 0.42 0.40 0.40 0.40 0.44 0.50 0.54 0.56 0.56 0.58 0.60 0.62 0.68 0.72 0.76 0.78 0.80 0.82 0.84 0.86 0.88 0.90 0.92 0.90 0.90 0.88 0.88 0.88 0.88 0.88 0.88 0.88 0.88 0.86 0.86 0.86 0.86 0.86 0.86 0.86 0.86 0.86 0.86 0.86 0.84 0.84 0.84 0.84 0.86 0.86 0.88 0.86 0.86 0.84
0.25 0.25 0.27 0.27 0.25 0.25 0.25 0.25 0.25 0.27 0.29 0.31 0.31 0.31 0.33 0.35 0.36 0.38 0.42 0.44 0.44 0.44 0.42 0.40 0.40 0.42 0.46 0.44 0.44 0.44 0.46 0.44 0.40 0.38 0.38 0.38 0.40 0.42 0.48 0.52 0.54 0.54 0.54 0.56 0.60 0.66 0.74 0.74 0.78 0.80 0.82 0.86 0.88 0.90 0.90 0.90 0.90 0.88 0.88 0.88 0.88 0.88 0.88 0.88 0.88 0.86 0.86 0.86 0.86 0.86 0.86 0.86 0.86 0.84 0.84 0.84 0.82 0.82 0.82 0.82 0.84 0.84 0.86 0.84 0.84 0.84
0.29 0.29 0.27 0.29 0.29 0.27 0.29 0.29 0.29 0.29 0.31 0.31 0.31 0.31 0.31 0.33 0.36 0.38 0.42 0.46 0.48 0.50 0.52 0.50 0.50 0.48 0.48 0.46 0.44 0.44 0.44 0.44 0.44 0.42 0.40 0.36 0.38 0.42 0.48 0.50 0.50 0.52 0.52 0.56 0.60 0.64 0.68 0.68 0.72 0.74 0.78 0.80 0.84 0.88 0.90 0.90 0.90 0.88 0.88 0.86 0.86 0.86 0.88 0.88 0.88 0.86 0.86 0.86 0.86 0.86 0.84 0.84 0.84 0.84 0.84 0.82 0.82 0.82 0.82 0.82 0.84 0.84 0.84 0.84 0.82 0.82
0.31 0.31 0.31 0.31 0.31 0.31 0.33 0.33 0.33 0.31 0.33 0.33 0.33 0.33 0.33 0.33 0.35 0.38 0.42 0.48 0.50 0.52 0.54 0.54 0.54 0.52 0.46 0.44 0.42 0.42 0.42 0.46 0.46 0.46 0.44 0.38 0.40 0.42 0.46 0.48 0.48 0.48 0.50 0.54 0.58 0.62 0.64 0.66 0.70 0.72 0.76 0.78 0.82 0.86 0.88 0.88 0.88 0.88 0.86 0.86 0.86 0.86 0.86 0.88 0.88 0.88 0.86 0.86 0.86 0.84 0.84 0.84 0.84 0.84 0.82 0.82 0.80 0.80 0.80 0.82 0.82 0.82 0.84 0.82 0.82 0.80
0.33 0.33 0.33 0.33 0.35 0.35 0.36 0.35 0.35 0.35 0.35 0.36 0.36 0.36 0.36 0.35 0.35 0.36 0.40 0.44 0.44 0.44 0.48 0.48 0.48 0.46 0.40 0.40 0.40 0.40 0.42 0.46 0.48 0.46 0.42 0.40 0.38 0.40 0.44 0.46 0.46 0.46 0.46 0.50 0.54 0.58 0.62 0.64 0.66 0.70 0.74 0.76 0.80 0.84 0.86 0.86 0.86 0.86 0.86 0.84 0.84 0.84 0.86 0.86 0.88 0.86 0.86 0.86 0.86 0.84 0.84 0.84 0.84 0.82 0.82 0.80 0.80 0.80 0.80 0.80 0.82 0.82 0.82 0.80 0.78 0.78
0.33 0.35 0.35 0.36 0.36 0.36 0.38 0.38 0.38 0.38 0.38 0.40 0.40 0.38 0.38 0.38 0.36 0.35 0.33 0.33 0.33 0.33 0.38 0.38 0.38 0.38 0.38 0.38 0.38 0.40 0.44 0.48 0.48 0.46 0.42 0.40 0.38 0.40 0.42 0.46 0.46 0.46 0.46 0.50 0.52 0.56 0.58 0.58 0.60 0.64 0.68 0.72 0.76 0.80 0.82 0.84 0.84 0.86 0.86 0.84 0.84 0.84 0.84 0.86 0.86 0.86 0.86 0.86 0.86 0.84 0.84 0.84 0.82 0.82 0.80 0.80 0.80 0.80 0.80 0.80 0.80 0.80 0.80 0.78 0.76 0.76
0.29 0.29 0.31 0.35 0.36 0.36 0.36 0.38 0.40 0.40 0.42 0.42 0.42 0.42 0.42 0.40 0.36 0.35 0.31 0.29 0.29 0.29 0.29 0.31 0.33 0.35 0.38 0.38 0.40 0.40 0.44 0.48 0.50 0.48 0.46 0.44 0.40 0.40 0.40 0.44 0.46 0.46 0.46 0.48 0.50 0.54 0.56 0.58 0.60 0.64 0.66 0.70 0.74 0.78 0.82 0.82 0.84 0.84 0.84 0.84 0.84 0.84 0.84 0.86 0.86 0.86 0.86 0.84 0.84 0.84 0.82 0.82 0.82 0.82 0.80 0.80 0.80 0.80 0.80 0.80 0.78 0.78 0.78 0.76 0.74 0.74
0.27 0.29 0.29 0.31 0.31 0.31 0.33 0.35 0.35 0.38 0.40 0.40 0.40 0.42 0.42 0.42 0.38 0.33 0.31 0.31 0.31 0.31 0.29 0.29 0.31 0.35 0.40 0.40 0.42 0.44 0.50 0.50 0.50 0.52 0.52 0.48 0.44 0.40 0.40 0.42 0.44 0.46 0.46 0.46 0.48 0.50 0.54 0.56 0.58 0.60 0.64 0.68 0.72 0.76 0.80 0.80 0.82 0.82 0.82 0.82 0.82 0.84 0.84 0.84 0.86 0.86 0.86 0.84 0.84 0.84 0.82 0.82 0.82 0.80 0.80 0.78 0.78 0.78 0.78 0.78 0.76 0.76 0.76 0.74 0.72 0.72
0.27 0.27 0.27 0.27 0.27 0.25 0.27 0.29 0.31 0.33 0.35 0.35 0.35 0.36 0.40 0.40 0.38 0.35 0.35 0.35 0.35 0.31 0.29 0.31 0.33 0.36 0.42 0.44 0.46 0.50 0.52 0.54 0.54 0.54 0.54 0.48 0.44 0.42 0.42 0.44 0.44 0.44 0.46 0.44 0.46 0.48 0.52 0.52 0.54 0.58 0.60 0.64 0.68 0.72 0.76 0.78 0.78 0.80 0.82 0.82 0.82 0.82 0.84 0.84 0.84 0.84 0.84 0.84 0.84 0.82 0.82 0.82 0.80 0.80 0.78 0.78 0.78 0.78 0.76 0.76 0.76 0.74 0.74 0.74 0.72 0.72
0.27 0.27 0.25 0.25 0.25 0.25 0.25 0.25 0.27 0.29 0.31 0.31 0.33 0.35 0.38 0.38 0.38 0.38 0.38 0.38 0.38 0.35 0.31 0.31 0.33 0.36 0.40 0.44 0.46 0.48 0.46 0.52 0.54 0.58 0.58 0.50 0.46 0.46 0.46 0.44 0.44 0.44 0.46 0.44 0.42 0.44 0.48 0.50 0.54 0.58 0.60 0.64 0.66 0.70 0.74 0.76 0.76 0.78 0.80 0.80 0.80 0.82 0.82 0.82 0.84 0.84 0.84 0.82 0.82 0.82 0.80 0.80 0.80 0.78 0.78 0.78 0.76 0.76 0.74 0.74 0.74 0.72 0.72 0.72 0.70 0.70
0.27 0.27 0.27 0.27 0.27 0.27 0.27 0.25 0.25 0.27 0.27 0.31 0.33 0.35 0.36 0.38 0.38 0.40 0.40 0.40 0.38 0.35 0.31 0.31 0.35 0.36 0.40 0.42 0.42 0.42 0.42 0.48 0.54 0.58 0.58 0.52 0.50 0.48 0.48 0.46 0.44 0.44 0.46 0.46 0.42 0.40 0.40 0.44 0.48 0.54 0.58 0.60 0.64 0.66 0.70 0.72 0.74 0.76 0.76 0.76 0.76 0.78 0.80 0.80 0.82 0.82 0.82 0.82 0.80 0.80 0.80 0.80 0.78 0.78 0.76 0.76 0.76 0.74 0.74 0.74 0.72 0.72 0.72 0.70 0.70 0.68
0.29 0.29 0.27 0.27 0.29 0.29 0.29 0.29 0.27 0.27 0.27 0.29 0.29 0.31 0.35 0.35 0.36 0.38 0.40 0.40 0.38 0.36 0.33 0.33 0.35 0.36 0.40 0.42 0.42 0.42 0.46 0.50 0.54 0.56 0.56 0.52 0.50 0.50 0.50 0.46 0.44 0.44 0.46 0.46 0.44 0.42 0.38 0.40 0.44 0.50 0.54 0.56 0.60 0.62 0.66 0.68 0.70 0.72 0.74 0.72 0.72 0.74 0.76 0.78 0.78 0.80 0.80 0.80 0.80 0.80 0.80 0.78 0.78 0.76 0.74 0.74 0.74 0.74 0.72 0.72 0.72 0.72 0.70 0.70 0.68 0.66
0.31 0.31 0.31 0.31 0.31 0.33 0.31 0.31 0.29 0.29 0.29 0.27 0.27 0.29 0.31 0.31 0.33 0.36 0.38 0.40 0.40 0.40 0.38 0.35 0.35 0.35 0.36 0.40 0.42 0.44 0.46 0.50 0.52 0.54 0.56 0.52 0.50 0.50 0.48 0.46 0.44 0.44 0.46 0.48 0.46 0.46 0.42 0.44 0.46 0.48 0.52 0.56 0.58 0.62 0.66 0.68 0.68 0.70 0.72 0.70 0.70 0.72 0.74 0.74 0.76 0.76 0.78 0.76 0.76 0.78 0.78 0.76 0.76 0.76 0.74 0.74 0.72 0.72 0.72 0.72 0.72 0.70 0.70 0.68 0.68 0.66
0.29 0.31 0.31 0.33 0.31 0.31 0.31 0.31 0.31 0.29 0.29 0.27 0.27 0.27 0.29 0.29 0.31 0.35 0.38 0.40 0.42 0.42 0.42 0.38 0.35 0.33 0.33 0.36 0.40 0.42 0.44 0.48 0.52 0.54 0.56 0.52 0.48 0.46 0.46 0.44 0.42 0.42 0.42 0.44 0.46 0.46 0.46 0.46 0.46 0.46 0.48 0.52 0.56 0.58 0.62 0.64 0.66 0.68 0.70 0.70 0.70 0.70 0.72 0.72 0.74 0.74 0.74 0.74 0.74 0.76 0.76 0.74 0.74 0.74 0.72 0.72 0.72 0.72 0.72 0.72 0.72 0.72 0.70 0.68 0.66 0.66
0.29 0.29 0.29 0.29 0.29 0.27 0.27 0.27 0.29 0.29 0.29 0.29 0.29 0.27 0.29 0.29 0.31 0.33 0.36 0.38 0.42 0.44 0.44 0.42 0.38 0.35 0.35 0.35 0.38 0.40 0.44 0.48 0.52 0.54 0.54 0.50 0.48 0.46 0.44 0.42 0.40 0.40 0.40 0.42 0.44 0.46 0.46 0.46 0.46 0.46 0.46 0.50 0.52 0.54 0.58 0.62 0.64 0.66 0.68 0.70 0.70 0.70 0.72 0.72 0.72 0.72 0.74 0.72 0.72 0.74 0.74 0.74 0.74 0.72 0.72 0.72 0.72 0.72 0.72 0.72 0.72 0.72 0.70 0.70 0.68 0.66
0.27 0.27 0.27 0.27 0.27 0.27 0.27 0.27 0.27 0.29 0.29 0.29 0.29 0.29 0.29 0.31 0.31 0.31 0.33 0.36 0.38 0.40 0.44 0.44 0.42 0.42 0.42 0.40 0.38 0.40 0.46 0.48 0.50 0.52 0.50 0.48 0.48 0.46 0.44 0.42 0.42 0.40 0.42 0.44 0.44 0.44 0.44 0.44 0.46 0.46 0.46 0.46 0.48 0.48 0.52 0.58 0.60 0.62 0.66 0.68 0.68 0.68 0.70 0.72 0.72 0.72 0.72 0.72 0.72 0.72 0.72 0.72 0.72 0.72 0.72 0.72 0.72 0.72 0.72 0.72 0.72 0.70 0.70 0.68 0.66 0.64
0.27 0.27 0.27 0.27 0.27 0.29 0.29 0.29 0.29 0.29 0.31 0.31 0.31 0.31 0.31 0.31 0.31 0.31 0.31 0.35 0.36 0.38 0.42 0.44 0.44 0.44 0.44 0.44 0.42 0.42 0.48 0.50 0.50 0.50 0.50 0.52 0.52 0.50 0.48 0.46 0.44 0.42 0.42 0.44 0.46 0.46 0.46 0.44 0.44 0.44 0.46 0.46 0.46 0.46 0.50 0.54 0.58 0.60 0.62 0.64 0.66 0.66 0.68 0.70 0.72 0.72 0.72 0.70 0.70 0.72 0.72 0.72 0.72 0.72 0.72 0.72 0.72 0.72 0.72 0.72 0.70 0.70 0.68 0.66 0.66 0.64
0.27 0.27 0.27 0.29 0.29 0.29 0.29 0.29 0.29 0.31 0.31 0.31 0.33 0.33 0.33 0.33 0.31 0.31 0.31 0.33 0.35 0.36 0.38 0.40 0.42 0.44 0.42 0.42 0.44 0.46 0.50 0.52 0.52 0.52 0.52 0.56 0.58 0.54 0.50 0.48 0.46 0.44 0.44 0.48 0.48 0.48 0.46 0.44 0.42 0.42 0.44 0.44 0.46 0.48 0.50 0.52 0.54 0.56 0.60 0.64 0.64 0.66 0.68 0.68 0.70 0.70 0.70 0.70 0.70 0.72 0.72 0.72 0.72 0.72 0.72 0.70 0.70 0.70 0.70 0.70 0.70 0.68 0.66 0.66 0.66 0.64
0.27 0.27 0.27 0.29 0.29 0.29 0.29 0.29 0.31 0.31 0.33 0.33 0.33 0.33 0.33 0.33 0.33 0.33 0.31 0.33 0.33 0.35 0.35 0.36 0.38 0.40 0.38 0.40 0.42 0.44 0.50 0.52 0.56 0.56 0.58 0.60 0.58 0.56 0.50 0.48 0.46 0.46 0.48 0.52 0.52 0.50 0.46 0.44 0.42 0.42 0.42 0.42 0.44 0.46 0.48 0.50 0.52 0.54 0.56 0.60 0.60 0.62 0.64 0.66 0.68 0.68 0.70 0.68 0.68 0.70 0.70 0.70 0.72 0.72 0.70 0.70 0.70 0.68 0.68 0.68 0.68 0.66 0.64 0.64 0.64 0.64
0.27 0.27 0.27 0.27 0.29 0.29 0.29 0.31 0.31 0.31 0.33 0.35 0.35 0.35 0.35 0.35 0.35 0.35 0.33 0.33 0.33 0.33 0.33 0.33 0.35 0.35 0.35 0.35 0.36 0.38 0.40 0.48 0.52 0.56 0.58 0.58 0.60 0.58 0.56 0.52 0.50 0.48 0.50 0.52 0.52 0.52 0.50 0.48 0.46 0.46 0.44 0.44 0.44 0.46 0.48 0.50 0.52 0.54 0.56 0.56 0.56 0.58 0.62 0.66 0.66 0.68 0.68 0.68 0.68 0.68 0.70 0.70 0.70 0.70 0.70 0.68 0.68 0.68 0.68 0.68 0.66 0.66 0.64 0.64 0.62 0.62
0.27 0.27 0.27 0.29 0.29 0.29 0.31 0.31 0.31 0.33 0.35 0.35 0.35 0.35 0.35 0.35 0.35 0.35 0.35 0.35 0.33 0.33 0.31 0.33 0.33 0.33 0.33 0.33 0.35 0.36 0.40 0.46 0.52 0.56 0.58 0.58 0.58 0.58 0.56 0.54 0.52 0.52 0.52 0.52 0.52 0.52 0.50 0.48 0.48 0.46 0.46 0.46 0.46 0.46 0.48 0.50 0.52 0.54 0.54 0.54 0.56 0.58 0.62 0.64 0.66 0.66 0.66 0.66 0.66 0.68 0.68 0.68 0.68 0.68 0.68 0.68 0.68 0.68 0.68 0.68 0.66 0.66 0.64 0.64 0.62 0.60
0.27 0.27 0.27 0.29 0.29 0.31 0.31 0.33 0.33 0.33 0.35 0.35 0.33 0.33 0.35 0.33 0.35 0.35 0.35 0.33 0.33 0.31 0.31 0.31 0.31 0.31 0.29 0.29 0.33 0.36 0.42 0.48 0.52 0.56 0.56 0.58 0.58 0.58 0.56 0.56 0.54 0.54 0.52 0.52 0.50 0.50 0.50 0.48 0.48 0.48 0.48 0.48 0.48 0.46 0.46 0.48 0.50 0.52 0.54 0.54 0.56 0.58 0.58 0.62 0.62 0.64 0.64 0.64 0.66 0.68 0.68 0.68 0.66 0.66 0.66 0.66 0.68 0.68 0.68 0.68 0.66 0.64 0.64 0.64 0.62 0.62
0.29 0.29 0.29 0.31 0.31 0.33 0.33 0.33 0.33 0.33 0.33 0.33 0.33 0.33 0.33 0.33 0.35 0.33 0.33 0.33 0.31 0.31 0.33 0.33 0.33 0.31 0.31 0.29 0.27 0.29 0.33 0.40 0.46 0.52 0.54 0.56 0.56 0.58 0.58 0.58 0.56 0.56 0.56 0.52 0.50 0.48 0.50 0.50 0.50 0.50 0.50 0.48 0.48 0.48 0.46 0.48 0.50 0.52 0.54 0.54 0.54 0.54 0.54 0.58 0.60 0.62 0.62 0.64 0.66 0.66 0.66 0.66 0.66 0.66 0.66 0.66 0.66 0.68 0.68 0.68 0.66 0.66 0.64 0.62 0.62 0.60
0.31 0.31 0.31 0.33 0.33 0.33 0.33 0.33 0.33 0.31 0.31 0.31 0.31 0.31 0.31 0.33 0.33 0.33 0.33 0.33 0.31 0.31 0.31 0.33 0.33 0.33 0.31 0.29 0.27 0.29 0.35 0.40 0.46 0.52 0.54 0.56 0.56 0.58 0.58 0.58 0.58 0.56 0.56 0.52 0.50 0.48 0.50 0.50 0.50 0.50 0.52 0.50 0.50 0.48 0.48 0.48 0.50 0.52 0.54 0.56 0.54 0.54 0.54 0.54 0.56 0.58 0.60 0.62 0.64 0.66 0.66 0.66 0.66 0.66 0.66 0.66 0.66 0.66 0.68 0.66 0.66 0.64 0.64 0.62 0.60 0.58
0.33 0.33 0.33 0.33 0.33 0.31 0.31 0.31 0.31 0.31 0.31 0.31 0.31 0.31 0.31 0.33 0.33 0.33 0.33 0.31 0.31 0.31 0.31 0.33 0.33 0.33 0.29 0.29 0.29 0.31 0.35 0.40 0.46 0.50 0.54 0.54 0.56 0.58 0.58 0.58 0.58 0.56 0.56 0.52 0.50 0.50 0.48 0.48 0.50 0.50 0.50 0.52 0.52 0.50 0.48 0.48 0.48 0.50 0.50 0.54 0.54 0.56 0.56 0.56 0.58 0.58 0.58 0.60 0.62 0.64 0.66 0.66 0.66 0.64 0.64 0.64 0.64 0.64 0.66 0.64 0.64 0.64 0.64 0.62 0.60 0.58
0.31 0.31 0.31 0.31 0.31 0.31 0.31 0.31 0.31 0.31 0.31 0.31 0.31 0.31 0.33 0.33 0.33 0.33 0.33 0.31 0.31 0.31 0.33 0.33 0.31 0.31 0.29 0.29 0.31 0.33 0.35 0.38 0.42 0.46 0.46 0.48 0.52 0.54 0.58 0.58 0.58 0.58 0.56 0.56 0.54 0.54 0.54 0.50 0.50 0.50 0.50 0.50 0.50 0.50 0.50 0.48 0.48 0.50 0.50 0.52 0.54 0.54 0.56 0.58 0.58 0.58 0.60 0.60 0.64 0.64 0.64 0.66 0.64 0.62 0.62 0.60 0.60 0.62 0.64 0.64 0.64 0.62 0.62 0.60 0.58 0.56
0.31 0.31 0.31 0.31 0.31 0.31 0.31 0.31 0.31 0.31 0.31 0.31 0.31 0.31 0.33 0.33 0.33 0.33 0.33 0.33 0.33 0.33 0.31 0.31 0.31 0.31 0.31 0.31 0.31 0.33 0.35 0.35 0.36 0.40 0.44 0.48 0.50 0.54 0.56 0.56 0.58 0.58 0.56 0.56 0.56 0.56 0.56 0.54 0.54 0.52 0.50 0.48 0.48 0.48 0.50 0.50 0.50 0.50 0.50 0.50 0.52 0.52 0.52 0.54 0.56 0.58 0.60 0.62 0.62 0.64 0.64 0.64 0.62 0.60 0.60 0.60 0.60 0.60 0.62 0.62 0.62 0.62 0.62 0.60 0.58 0.56
0.31 0.31 0.31 0.31 0.31 0.31 0.31 0.31 0.31 0.31 0.31 0.31 0.31 0.31 0.33 0.33 0.33 0.33 0.33 0.33 0.33 0.33 0.31 0.31 0.31 0.31 0.31 0.33 0.33 0.35 0.36 0.36 0.38 0.40 0.44 0.46 0.48 0.52 0.54 0.54 0.54 0.56 0.56 0.56 0.56 0.56 0.56 0.56 0.56 0.54 0.54 0.50 0.48 0.48 0.48 0.50 0.50 0.50 0.50 0.50 0.52 0.52 0.52 0.52 0.56 0.58 0.62 0.62 0.62 0.64 0.64 0.62 0.60 0.58 0.58 0.58 0.58 0.58 0.60 0.60 0.60 0.62 0.62 0.58 0.56 0.54
0.31 0.31 0.31 0.31 0.31 0.31 0.31 0.31 0.31 0.31 0.31 0.31 0.31 0.31 0.33 0.33 0.33 0.33 0.33 0.33 0.33 0.31 0.31 0.31 0.31 0.31 0.31 0.33 0.35 0.35 0.36 0.38 0.40 0.42 0.44 0.46 0.48 0.48 0.50 0.50 0.50 0.52 0.52 0.54 0.54 0.54 0.56 0.56 0.56 0.56 0.56 0.52 0.50 0.50 0.48 0.50 0.50 0.50 0.50 0.52 0.52 0.52 0.52 0.52 0.56 0.58 0.60 0.60 0.62 0.62 0.62 0.62 0.62 0.60 0.58 0.58 0.56 0.56 0.58 0.58 0.58 0.60 0.60 0.58 0.56 0.54
0.31 0.31 0.31 0.31 0.31 0.31 0.31 0.31 0.31 0.31 0.31 0.31 0.31 0.31 0.33 0.33 0.33 0.33 0.33 0.33 0.33 0.31 0.31 0.31 0.31 0.31 0.31 0.31 0.33 0.35 0.36 0.38 0.40 0.40 0.42 0.44 0.46 0.46 0.48 0.46 0.48 0.48 0.50 0.50 0.50 0.48 0.50 0.52 0.52 0.52 0.54 0.54 0.52 0.52 0.50 0.50 0.50 0.50 0.50 0.50 0.50 0.50 0.50 0.50 0.54 0.58 0.60 0.60 0.60 0.62 0.62 0.60 0.60 0.60 0.58 0.58 0.56 0.56 0.56 0.56 0.56 0.58 0.58 0.58 0.56 0.54
0.31 0.31 0.31 0.31 0.31 0.31 0.31 0.31 0.31 0.31 0.31 0.31 0.31 0.31 0.31 0.31 0.33 0.33 0.33 0.33 0.33 0.31 0.31 0.31 0.33 0.33 0.31 0.33 0.35 0.36 0.38 0.38 0.40 0.40 0.42 0.44 0.46 0.46 0.46 0.46 0.46 0.46 0.46 0.46 0.44 0.44 0.44 0.46 0.44 0.44 0.46 0.52 0.54 0.56 0.54 0.52 0.50 0.50 0.48 0.50 0.50 0.50 0.50 0.52 0.54 0.58 0.58 0.60 0.60 0.60 0.58 0.58 0.58 0.58 0.58 0.56 0.56 0.54 0.54 0.54 0.56 0.56 0.58 0.56 0.54 0.54
Wind_Speed
40 40 39 39 38 38 38 37 37 36 37 36 36 36 36 36 36 36 36 35 35 35 36 36 36 36 37 37 37 37 38 38 38 38 38 38 37 37 36 36 36 36 35 35 34 33 33 33 33 32 32 32 32 31 30 29 29 30 30 29 29 28 28 27 27 27 27 26 26 26 26 26 25 24 24 23 23 22 22 21 21 20 20 20 19 18
39 39 39 38 38 38 38 38 37 37 37 36 36 36 35 36 36 36 36 36 36 36 36 36 36 36 36 37 37 37 38 38 38 39 38 38 38 37 37 36 36 36 35 35 34 34 34 33 33 33 33 32 32 31 30 29 29 30 30 29 29 28 28 27 27 27 27 26 26 26 26 26 26 25 24 24 23 22 22 22 21 21 21 20 20 19
39 39 39 39 39 38 39 39 38 38 37 37 37 36 36 36 36 36 36 36 36 36 36 36 36 36 36 36 36 37 37 37 38 38 38 38 38 37 37 36 36 36 36 35 35 35 34 34 33 33 32 32 32 32 31 30 30 30 30 30 29 29 28 28 27 27 27 26 26 26 26 26 26 25 25 24 23 23 22 22 21 21 21 21 20 19
41 41 41 40 40 40 40 40 40 39 39 38 38 38 38 37 37 37 37 37 37 37 36 36 36 36 35 35 35 36 36 36 37 37 37 38 37 37 37 37 36 36 36 36 36 35 35 34 33 33 32 32 32 31 31 31 30 30 30 30 29 29 28 28 28 27 27 27 27 27 27 27 26 25 25 24 23 23 22 22 22 21 21 21 20 19
42 42 42 41 41 41 41 41 41 41 40 40 40 40 39 39 39 38 38 38 38 37 37 37 37 36 36 35 35 35 35 36 36 36 37 37 37 37 37 37 37 37 37 37 36 36 35 34 34 33 32 32 31 31 31 31 31 30 30 30 30 29 29 29 28 28 28 28 27 27 27 27 26 25 25 24 23 23 22 22 22 21 21 21 20 19
43 42 42 42 42 42 42 42 42 42 42 41 41 41 41 41 40 40 39 39 39 38 38 38 38 37 37 36 36 35 35 36 36 36 36 37 37 37 37 37 37 38 38 37 37 36 35 35 34 33 32 32 31 31 31 31 31 31 30 30 30 30 29 29 29 29 28 28 28 28 27 27 26 25 25 24 23 23 23 22 22 21 21 21 20 19
44 43 43 43 43 43 42 42 43 43 42 42 42 42 42 41 41 41 41 40 40 39 39 39 38 38 38 37 37 36 36 36 37 37 37 37 37 37 37 37 38 38 38 37 37 36 35 35 34 34 33 32 32 31 31 31 31 31 31 31 30 30 30 29 29 29 29 29 28 28 28 27 26 25 25 24 24 23 23 22 22 22 22 22 21 20
45 45 44 44 44 43 43 43 43 43 43 43 43 42 42 42 42 42 41 41 41 40 40 40 39 39 39 39 38 38 38 38 38 37 37 37 37 37 37 38 38 38 37 37 36 36 35 35 34 34 33 33 32 32 31 31 31 31 31 31 31 31 30 30 29 29 29 29 29 28 28 27 26 26 25 24 24 24 23 23 22 22 22 22 21 20
46 46 45 45 45 44 44 44 44 43 43 43 43 43 43 42 42 42 42 42 41 41 40 40 40 40 40 40 39 39 39 39 39 39 38 38 37 38 38 38 38 38 37 37 36 36 35 35 35 34 34 33 33 33 32 32 32 32 32 31 31 31 31 30 30 30 30 29 29 29 28 27 26 26 25 25 24 24 24 23 23 23 22 22 21 20
47 47 46 46 46 45 45 45 45 44 44 43 43 43 43 43 43 42 42 42 42 41 41 41 41 41 41 41 41 41 41 41 41 40 40 39 39 38 39 39 39 38 38 37 37 36 36 35 35 35 34 34 34 34 34 33 33 32 32 32 32 32 31 30 30 30 30 30 29 29 28 27 27 26 25 25 25 25 25 24 24 23 23 22 21 20
47 47 47 47 46 46 46 46 46 45 44 44 44 44 44 44 43 43 43 43 42 42 42 42 42 42 41 41 41 41 42 42 42 42 41 41 40 40 40 40 39 39 38 38 37 37 37 36 36 36 35 35 35 35 35 34 34 33 33 33 32 32 32 31 30 30 30 30 29 29 28 28 27 26 26 26 25 25 25 25 24 24 23 22 21 20
48 48 47 47 47 47 46 46 46 45 45 44 44 44 44 44 44 43 43 44 43 43 42 42 42 42 42 42 42 42 42 42 42 42 42 42 42 41 41 41 40 40 39 39 38 38 38 38 37 37 37 36 36 36 36 35 35 34 33 33 33 33 32 31 31 30 30 30 29 29 29 28 28 27 27 26 26 26 25 25 25 24 23 22 21 20
49 49 48 48 48 48 47 47 46 46 45 45 45 45 45 44 44 44 44 45 44 44 43 42 42 43 43 43 43 42 43 43 43 43 43 43 42 42 42 41 41 41 40 40 39 39 39 39 39 39 38 38 38 37 37 36 35 35 34 34 34 33 32 32 31 31 30 30 29 29 29 28 28 28 27 27 26 26 26 25 25 24 23 22 21 20
50 50 50 50 50 49 49 48 48 48 47 47 47 46 46 46 45 45 45 45 45 45 44 43 43 43 44 44 43 43 43 43 43 44 44 44 43 43 43 43 42 42 42 41 41 40 40 40 40 40 40 39 39 38 38 37 36 36 35 35 34 34 33 32 31 31 30 30 29 29 29 28 28 28 28 27 27 26 26 25 25 24 23 22 21 21
51 50 50 51 51 50 50 50 50 50 50 49 48 48 48 47 47 46 46 46 46 45 45 45 45 45 44 44 44 44 44 44 44 44 44 45 45 44 44 44 44 43 43 43 43 42 42 42 41 41 41 41 40 39 38 38 37 37 36 36 35 34 33 33 32 31 31 30 30 29 29 29 28 28 28 27 27 27 26 26 25 25 24 23 22 21
52 51 51 52 52 52 51 51 51 51 51 51 50 49 49 49 48 47 47 47 47 46 45 45 45 45 46 45 45 45 45 45 45 45 45 45 45 45 45 45 44 44 44 44 44 44 43 43 42 42 42 42 41 41 39 39 38 38 38 37 36 35 34 33 32 32 31 31 30 30 29 29 29 28 28 27 27 27 27 27 26 25 25 23 22 21
53 53 53 53 53 53 53 52 52 52 52 52 52 51 51 50 50 49 48 48 48 47 47 46 45 45 45 45 46 45 45 45 46 46 46 46 46 46 46 45 45 45 45 45 45 44 44 43 43 43 43 43 42 42 41 40 39 39 38 37 36 35 34 34 33 33 32 32 31 30 30 29 29 29 28 28 28 27 27 27 27 26 25 24 22 21
54 54 54 54 54 54 54 53 53 53 53 53 53 53 53 52 52 51 50 50 49 49 48 48 47 46 45 44 45 45 45 45 45 46 46 46 46 46 46 46 46 46 46 46 45 45 45 44 44 43 43 43 43 43 42 41 40 40 39 38 37 36 35 35 34 34 33 33 32 31 31 30 30 29 29 29 28 28 28 28 27 26 25 24 23 22
55 55 55 55 55 55 55 55 54 54 53 53 53 53 53 53 53 52 52 52 51 51 50 50 49 49 48 47 46 45 45 44 45 45 46 46 46 46 46 46 46 47 46 46 46 46 45 45 45 45 44 44 44 44 43 42 41 41 40 39 38 37 36 36 35 35 34 33 33 32 31 31 30 30 30 29 29 29 28 28 28 27 26 25 23 22
57 56 56 56 56 57 57 56 56 55 55 55 54 54 54 54 54 54 54 53 53 52 52 52 51 51 50 49 48 47 46 45 45 45 46 46 46 46 46 46 46 47 47 47 46 46 45 45 45 45 45 45 44 44 44 43 42 42 41 40 39 38 37 37 36 35 35 34 34 33 32 32 31 31 30 30 30 29 29 29 28 28 27 26 24 23
58 58 58 57 57 57 58 58 57 57 57 57 56 56 56 55 55 54 55 54 54 54 54 53 53 53 51 50 49 48 47 46 46 46 46 46 46 46 46 46 46 46 47 47 46 46 46 46 46 45 45 45 45 45 44 44 43 43 42 41 40 39 38 38 37 36 36 35 34 34 33 32 32 31 31 30 30 29 29 29 29 28 27 26 25 23
59 60 60 59 58 58 59 59 59 58 58 58 58 57 57 56 56 55 55 55 55 55 56 56 55 54 52 51 51 50 50 49 48 47 47 46 47 47 46 46 46 46 46 46 46 46 46 46 46 46 46 46 45 45 45 45 44 44 43 42 41 40 39 38 38 37 36 36 35 34 34 33 33 32 31 31 30 30 30 29 29 29 28 26 25 24
61 61 61 61 60 60 61 60 60 60 59 59 59 59 59 58 58 57 56 55 55 55 56 56 56 55 54 53 52 52 52 51 50 49 48 47 47 46 46 45 45 46 46 46 45 45 46 46 46 46 46 46 46 46 45 45 45 44 44 43 42 41 40 39 38 38 37 36 36 35 34 34 33 33 32 31 30 30 30 30 29 29 28 27 26 25
62 62 62 62 62 62 62 62 61 61 60 60 60 60 60 60 60 60 59 58 57 56 56 56 55 55 55 55 54 54 54 53 52 50 49 49 48 47 46 45 45 46 46 46 45 45 45 46 46 46 46 46 46 46 46 46 45 45 44 43 43 42 41 40 39 38 38 37 36 35 35 34 34 33 32 31 31 30 30 30 29 29 28 27 26 26
63 63 63 63 63 63 63 63 63 62 62 61 61 61 61 61 61 61 62 61 60 59 58 57 57 57 57 57 56 56 56 55 53 51 50 50 49 48 46 46 45 45 46 45 45 45 45 45 46 46 46 46 47 47 47 46 46 46 45 44 43 42 42 41 40 39 38 37 37 36 35 35 34 33 33 32 31 31 30 30 29 29 28 28 27 27
65 65 65 65 65 65 65 65 65 65 64 63 62 62 61 61 61 61 61 61 61 60 60 59 59 59 59 58 57 57 57 56 54 53 52 51 50 49 48 47 46 45 45 45 45 45 45 45 45 45 45 46 46 47 47 47 46 46 45 45 44 43 42 41 40 39 39 38 37 36 36 35 34 34 33 32 32 31 31 30 30 29 29 28 28 27
66 66 66 66 66 66 65 65 65 65 65 64 63 63 62 61 60 60 60 60 60 59 58 58 58 59 59 57 57 57 57 56 55 54 53 51 50 50 49 48 47 46 45 45 45 45 45 45 45 45 45 45 45 46 47 47 47 46 46 45 44 44 43 42 41 40 39 38 37 37 36 35 35 34 33 33 32 32 31 31 30 29 29 28 27 27
65 65 65 65 65 65 64 64 63 63 62 62 62 61 61 60 59 59 60 59 58 57 57 57 57 56 55 55 55 56 55 55 55 55 53 52 51 51 50 49 47 47 46 45 45 45 45 45 45 45 45 45 45 45 46 47 47 46 46 45 45 44 43 42 41 40 39 39 38 37 36 36 35 34 34 33 33 32 31 31 30 30 29 28 27 26
63 63 63 63 64 64 63 63 62 62 61 60 59 58 58 57 57 58 59 58 56 55 56 56 56 54 53 53 53 53 53 54 54 54 52 51 52 52 51 49 48 47 46 45 45 45 45 45 45 44 44 44 44 44 45 45 46 46 46 45 45 44 43 42 41 41 40 39 38 37 37 36 35 35 34 33 33 32 32 31 30 30 29 28 27 26
60 60 60 60 60 60 60 60 60 60 59 58 57 56 55 54 55 55 56 55 54 54 55 55 54 53 52 51 51 51 52 53 53 52 51 51 52 52 51 49 49 48 47 45 44 44 45 45 45 44 44 44 43 43 44 44 44 44 44 44 44 44 43 43 42 41 40 39 39 38 37 36 36 35 34 34 33 33 32 31 30 29 28 27 27 26
58 58 58 57 57 57 57 57 57 57 57 56 56 55 54 53 53 53 53 52 52 53 54 54 53 52 51 50 49 49 51 52 52 51 50 51 51 51 50 49 49 49 48 46 45 44 44 44 44 44 44 43 43 43 44 44 44 44 44 43 43 43 43 43 42 41 40 40 39 38 37 37 36 35 34 34 33 33 32 31 30 29 28 27 26 26
57 57 56 56 55 55 55 54 54 54 54 54 54 53 52 52 51 51 51 51 51 51 52 53 53 53 52 51 51 50 50 51 51 51 50 50 51 51 50 49 49 49 49 48 47 46 44 44 44 44 44 43 43 43 44 44 44 44 44 43 43 43 42 42 42 41 40 39 39 38 37 37 36 35 34 34 33 33 32 31 31 30 29 27 26 26
55 55 55 54 54 54 53 52 52 53 53 53 53 52 52 51 50 50 50 49 49 50 50 51 52 52 53 53 53 52 51 51 51 51 51 50 50 50 50 49 49 49 49 48 48 47 45 44 44 43 43 43 43 43 43 44 44 44 44 44 43 43 42 42 41 40 40 39 38 38 37 36 36 35 34 34 33 33 32 32 31 30 29 28 27 26
54 54 54 54 53 53 52 52 52 52 52 52 52 51 51 50 50 49 49 48 48 49 49 50 50 51 52 53 53 53 52 52 52 53 52 51 51 50 50 49 49 49 48 48 47 47 46 45 44 43 43 43 43 43 43 44 44 44 44 44 43 43 42 42 41 40 39 39 38 37 37 36 35 35 34 34 34 33 33 32 31 30 29 28 27 26
53 53 53 53 52 52 52 51 51 51 51 50 50 49 49 49 48 48 48 48 48 48 48 49 49 50 52 52 53 53 53 53 53 53 53 52 51 50 49 49 49 49 48 48 47 46 45 45 44 43 42 42 43 43 43 43 44 44 44 44 44 43 43 42 41 40 40 39 38 37 37 36 35 35 34 34 34 33 33 32 31 30 29 28 27 26
51 51 51 51 50 50 50 49 49 49 48 48 48 47 47 46 46 46 46 46 46 47 47 48 48 49 50 51 52 53 53 53 53 53 53 53 52 51 50 49 49 49 48 48 47 46 45 45 44 44 43 42 42 43 43 43 43 43 44 44 44 43 43 43 42 41 40 39 38 38 37 36 35 35 34 34 34 33 33 32 31 30 29 28 27 26
49 49 48 48 48 47 47 47 46 46 46 46 45 45 44 44 44 44 45 45 45 46 46 47 47 47 48 49 50 51 52 52 52 52 53 53 52 51 50 50 49 49 48 48 47 47 46 45 44 44 43 43 42 42 42 43 43 43 43 43 43 43 43 43 42 41 40 40 39 38 37 36 35 35 35 34 34 33 32 32 31 30 29 28 27 26
46 46 45 45 44 44 44 44 44 44 43 43 43 43 42 42 42 43 43 44 44 45 45 46 46 47 48 48 49 49 49 49 49 51 52 52 52 51 51 50 49 49 49 48 47 46 45 45 44 43 43 43 43 42 42 42 42 42 43 43 43 43 43 42 42 41 41 40 39 38 37 37 36 35 34 34 33 33 32 31 30 30 29 28 27 26
42 42 41 41 41 41 41 41 41 41 41 41 41 41 41 41 41 42 42 43 43 44 44 45 45 46 47 47 48 48 48 47 48 49 49 50 50 50 50 49 49 48 48 48 47 46 46 45 44 43 42 42 42 42 43 43 43 43 43 42 42 42 43 42 42 41 41 40 39 39 38 37 36 35 34 34 33 32 31 30 30 30 29 28 27 26
39 39 38 38 38 38 38 39 39 39 39 39 39 39 39 39 39 40 41 41 42 42 43 44 44 45 46 46 47 47 47 47 47 47 47 47 48 49 49 48 48 47 47 47 47 46 46 45 45 44 43 42 41 41 42 43 43 43 43 42 42 42 42 42 42 41 41 40 40 39 38 37 36 35 35 34 33 32 31 30 30 29 29 28 27 26
37 37 36 36 36 36 36 36 36 36 36 37 37 37 37 37 38 38 39 39 40 41 41 41 42 43 44 45 46 47 47 47 46 45 45 46 47 47 47 46 46 46 46 46 46 46 45 45 44 43 43 42 42 42 42 43 43 43 43 43 42 42 42 42 41 41 41 40 40 39 38 37 37 36 35 34 33 32 31 30 30 29 28 28 27 27
35 35 35 34 34 34 34 34 34 34 34 34 35 35 35 36 36 36 37 37 38 38 39 39 40 42 43 44 45 46 47 47 46 45 45 46 46 46 46 45 44 44 45 45 45 45 45 44 44 43 42 42 41 41 41 42 43 44 44 44 43 42 41 41 41 41 40 40 40 39 38 38 37 36 35 34 33 32 32 31 30 29 28 27 27 27
34 33 33 33 33 32 32 32 32 33 33 33 33 34 34 34 34 34 35 36 36 36 37 37 39 40 41 42 44 45 46 46 46 45 45 45 45 45 44 43 43 43 44 44 44 44 44 43 43 43 43 42 42 41 41 42 43 43 44 44 43 42 41 41 41 41 40 40 40 39 38 38 37 36 35 34 33 32 31 31 30 29 28 27 27 27
33 32 32 32 32 32 32 32 32 32 32 32 32 33 32 32 32 33 34 34 34 35 35 36 37 38 39 40 41 42 43 44 45 45 44 44 44 43 43 42 42 42 42 42 42 42 42 42 42 43 42 42 41 41 41 42 42 43 44 44 44 43 42 42 41 41 40 40 39 39 38 38 37 35 34 34 33 32 31 30 29 28 28 27 27 27
31 32 32 32 31 31 31 31 31 31 32 32 32 32 32 31 32 32 32 32 33 33 33 34 34 35 37 38 39 40 40 41 42 42 42 42 42 42 42 41 41 41 41 41 41 40 40 41 41 42 41 41 41 41 41 41 42 42 43 43 43 43 43 42 42 41 41 40 39 38 38 38 37 35 34 34 33 32 31 30 29 28 27 27 27 27
33 33 32 32 32 31 31 31 31 31 31 31 32 32 31 31 31 31 31 32 32 32 32 32 33 33 34 35 36 37 37 38 39 40 40 40 41 41 41 40 39 39 39 39 39 39 40 40 40 40 40 40 40 40 40 40 41 41 42 43 43 42 42 42 42 42 41 40 39 39 38 38 37 35 34 34 33 32 31 30 29 28 28 27 27 27
33 33 33 32 32 31 31 30 30 30 30 30 31 31 31 30 30 30 30 31 31 30 31 31 31 32 33 33 34 34 35 36 36 37 38 39 39 40 39 38 38 38 38 38 38 38 39 39 39 39 39 38 38 38 39 39 40 41 41 42 42 42 41 41 42 42 41 40 40 39 39 38 37 35 34 33 32 31 31 30 29 29 28 28 27 27
33 33 32 32 31 31 30 29 29 29 29 30 30 30 30 30 29 29 29 29 29 29 29 29 30 30 31 31 32 32 33 34 34 35 36 37 38 38 38 37 37 37 37 37 37 37 37 38 38 38 39 38 37 37 37 38 39 40 41 41 41 41 41 41 41 41 41 40 40 40 40 38 37 36 34 33 32 31 30 30 29 29 28 28 28 28
32 32 32 31 31 30 29 29 28 28 28 28 29 29 29 29 29 29 28 28 28 28 28 28 28 28 29 29 30 30 31 31 31 32 33 34 36 37 37 36 36 36 36 35 35 35 35 36 36 37 37 37 37 36 36 37 39 40 40 41 41 41 40 40 41 41 40 40 41 41 40 38 37 36 35 33 32 31 30 30 29 29 28 28 28 28
31 31 31 30 30 29 28 28 27 27 27 27 28 28 28 27 27 27 27 27 27 27 27 27 27 27 27 27 27 27 28 28 28 29 30 32 33 35 36 36 36 36 35 34 34 34 34 34 34 35 36 36 36 35 35 36 38 39 40 40 40 40 40 40 40 40 40 40 40 40 39 38 37 36 35 33 32 31 30 30 29 29 28 28 28 28
30 30 29 29 28 28 27 27 26 26 26 26 26 26 26 26 25 25 25 25 25 26 26 26 26 26 26 25 25 26 27 27 28 28 28 30 31 33 35 36 36 36 34 33 33 33 33 33 33 33 34 34 34 34 34 35 36 37 38 39 39 39 39 39 39 39 39 40 40 40 39 38 37 36 35 34 32 31 30 30 29 29 28 28 28 28
Wind_Direction
284 284 284 284 284 283 283 282 282 281 280 279 278 277 276 275 274 273 272 272 271 270 269 268 267 266 265 264 262 261 260 259 258 257 256 255 254 254 254 254 254 254 255 254 254 255 255 255 255 255 253 252 252 253 254 255 255 255 255 255 256 255 255 254 254 252 251 250 249 248 249 250 252 255 257 260 261 263 264 265 264 262 259 258 259 260
284 284 284 283 283 283 283 282 282 281 281 280 279 278 277 276 275 274 273 272 271 270 269 268 267 267 266 265 263 261 260 259 258 257 256 256 255 255 255 254 254 254 254 254 254 255 255 255 255 254 253 252 252 252 253 253 253 254 254 254 254 254 254 253 252 251 250 249 248 247 248 250 252 254 256 258 260 261 262 262 261 260 258 257 258 259
284 284 283 283 282 282 282 282 281 281 280 280 279 278 277 276 275 274 273 272 272 271 269 268 268 267 266 265 264 262 260 259 257 256 256 255 255 255 254 254 254 254 254 254 255 255 255 255 254 253 252 251 251 251 252 252 252 252 252 253 253 252 252 251 250 249 249 248 247 247 248 249 251 253 255 256 257 259 260 260 259 258 256 256 257 259
283 283 283 282 282 281 281 281 281 280 280 279 279 278 277 277 276 275 274 273 272 271 269 268 267 266 266 265 264 262 260 259 257 256 255 255 255 254 254 254 253 254 254 254 255 255 255 254 254 253 252 251 251 251 250 250 250 250 250 251 251 251 250 249 248 248 248 247 247 247 248 249 250 252 253 254 255 256 257 257 256 256 255 255 256 259
283 283 283 282 282 281 281 280 280 280 279 279 278 278 277 276 275 275 274 272 271 270 269 268 266 266 265 264 264 262 260 258 257 256 255 254 254 254 253 253 253 253 254 254 254 254 254 253 253 252 252 251 250 250 249 249 249 249 249 249 249 249 249 248 247 247 247 247 248 248 248 249 249 250 251 252 253 254 254 254 254 254 253 254 256 259
282 282 282 282 281 281 281 280 280 280 279 279 278 277 276 276 275 274 273 272 271 270 268 267 265 264 264 263 263 262 260 258 257 255 255 254 253 253 253 253 253 253 254 254 254 253 253 252 252 251 251 251 250 249 248 248 248 248 248 248 248 248 248 247 247 247 247 247 248 248 248 248 248 249 249 250 251 251 251 252 251 251 252 254 256 259
281 281 281 281 281 280 280 280 279 279 279 278 278 277 276 275 275 274 273 272 271 270 268 266 265 264 263 262 261 261 260 258 257 255 254 254 253 253 253 253 253 253 253 253 253 252 251 251 251 251 250 250 249 248 248 247 247 247 247 247 247 247 247 247 247 247 247 247 247 247 247 247 247 247 248 248 249 249 249 249 249 250 251 253 255 258
281 280 280 280 280 280 279 279 279 278 278 278 278 277 276 275 275 274 273 272 271 270 268 266 265 263 262 261 260 260 259 258 257 256 255 254 253 253 253 253 253 253 253 252 252 251 250 250 250 250 249 249 248 247 247 247 247 247 247 247 247 246 246 246 246 246 246 246 246 246 246 245 245 245 246 246 247 247 247 247 248 249 250 252 255 257
280 280 279 279 279 279 279 278 278 277 277 277 277 276 276 275 275 274 273 272 271 270 268 266 265 263 262 260 260 259 259 258 257 256 255 254 253 253 253 253 253 253 252 252 251 250 250 249 249 249 248 247 247 247 246 246 247 247 247 247 246 246 245 245 245 246 245 245 245 245 244 244 243 244 245 245 245 246 245 246 246 248 250 252 254 256
279 279 279 278 278 278 278 277 277 277 276 276 275 275 275 274 274 274 273 272 270 269 268 266 265 263 262 261 260 259 258 258 257 256 255 254 253 253 253 253 253 253 252 251 250 250 249 249 249 248 248 247 246 246 246 246 247 247 247 247 246 245 245 245 245 245 245 245 244 244 243 243 242 243 244 244 244 244 244 244 245 247 249 252 254 255
278 278 278 278 278 277 277 276 276 276 275 275 274 274 273 273 273 273 272 272 270 269 268 266 265 263 262 261 260 259 258 258 257 256 255 254 253 253 253 253 253 253 252 251 251 250 249 248 248 248 248 247 246 246 246 246 247 247 247 246 246 245 245 244 244 244 244 244 244 243 242 242 242 242 243 243 243 243 243 243 244 245 248 250 252 254
278 278 278 277 277 277 276 276 275 275 274 274 273 272 272 271 271 271 271 271 270 269 268 266 265 263 262 261 260 259 258 257 257 256 255 254 253 252 253 253 253 253 253 252 251 250 249 249 248 248 248 247 247 246 246 247 247 247 246 246 246 245 244 244 244 243 243 243 243 243 242 242 241 241 242 242 242 241 241 241 242 244 246 248 250 252
278 278 277 277 276 276 275 275 275 274 273 272 272 271 271 271 270 270 270 269 269 268 268 267 265 264 262 261 260 259 258 258 257 256 255 254 253 253 252 252 253 253 253 252 252 251 250 249 249 248 248 248 247 247 246 246 246 246 246 246 246 245 244 243 243 243 243 242 242 242 242 241 241 241 241 241 240 240 240 240 241 242 244 246 248 250
278 277 277 276 276 275 275 274 274 274 273 272 271 270 270 270 270 269 269 268 268 268 267 266 265 264 263 261 260 260 259 258 257 256 255 255 254 253 252 252 252 252 252 252 252 251 250 249 249 249 248 248 247 247 246 246 246 246 246 246 246 245 244 243 242 242 242 242 242 242 242 241 241 240 240 239 239 239 239 239 240 241 242 244 246 248
277 277 277 276 275 275 274 274 274 273 273 272 271 270 270 269 269 268 268 267 267 267 266 265 264 264 263 261 260 259 259 258 258 257 256 255 254 253 252 252 252 251 251 251 251 250 250 249 249 249 248 247 247 246 246 246 245 245 245 246 245 244 243 242 242 241 241 241 241 241 241 241 240 239 239 238 238 238 238 238 239 239 241 242 245 246
277 277 276 276 275 275 274 274 273 273 273 272 271 270 269 269 268 267 266 266 266 266 265 264 264 263 262 261 260 259 258 258 257 257 256 256 254 253 252 252 252 251 251 250 250 250 249 249 248 248 247 246 246 245 245 245 245 244 245 245 244 243 242 242 241 241 240 241 241 240 240 240 239 238 238 237 237 237 237 237 237 238 239 241 243 244
277 276 276 276 275 275 274 274 273 273 273 272 271 270 269 268 267 266 266 265 265 265 264 263 263 262 262 261 260 259 258 257 257 257 257 256 255 254 252 252 251 251 250 250 249 249 249 248 247 247 246 245 245 244 244 244 244 244 244 244 243 242 241 241 241 240 240 240 239 239 239 238 238 237 237 237 237 237 237 237 237 238 239 240 242 243
277 277 276 276 275 275 275 274 274 273 273 272 271 270 269 268 267 266 265 264 264 263 263 262 262 261 261 260 260 259 257 256 256 257 257 256 255 254 253 252 252 251 250 250 249 249 248 247 247 246 246 245 244 244 244 243 243 243 243 242 242 241 240 240 240 240 239 239 239 238 238 237 237 237 236 236 237 237 237 237 238 238 239 241 242 243
278 277 277 277 276 276 275 274 274 273 273 273 272 271 270 268 267 265 264 263 263 262 262 261 261 260 260 260 259 259 257 256 255 256 256 256 255 254 253 252 252 251 250 250 249 248 248 247 246 245 245 244 243 243 243 243 243 242 242 241 241 240 239 240 239 239 238 238 238 237 237 237 237 236 236 236 236 236 237 237 238 239 240 241 242 244
279 278 277 277 277 276 276 275 274 273 273 273 272 272 271 269 268 266 265 264 263 262 261 261 260 260 259 259 259 258 257 255 255 255 255 255 255 254 253 252 251 251 250 250 249 248 247 246 246 245 244 243 242 242 242 242 242 241 241 240 240 239 239 239 239 238 238 237 237 237 237 237 237 236 236 236 236 236 236 236 237 238 240 241 242 243
279 278 277 277 277 277 276 275 274 273 273 273 272 271 270 270 269 267 266 264 263 262 261 260 259 258 258 258 258 257 256 254 254 254 254 255 254 254 253 252 251 250 250 250 249 248 247 246 245 244 243 243 242 241 241 241 241 241 240 239 239 238 238 238 238 238 237 237 236 236 236 237 237 236 236 236 236 236 236 236 236 237 238 239 240 241
279 279 278 278 277 276 276 276 275 274 273 272 271 270 270 269 269 268 267 265 264 262 261 259 258 258 257 257 256 256 255 254 253 253 254 254 253 253 252 251 250 250 250 249 249 248 247 246 245 244 243 242 241 240 240 240 240 240 239 238 238 237 237 237 237 237 236 236 236 236 236 236 236 236 236 236 236 236 236 236 236 236 237 238 239 240
279 279 279 278 278 277 277 276 276 275 274 273 271 270 269 269 268 268 268 267 265 263 262 260 259 258 257 256 256 255 255 254 253 253 253 253 252 252 251 250 249 249 249 249 248 247 246 246 245 244 242 241 240 239 239 239 239 238 238 237 237 236 236 237 237 236 236 235 235 235 235 236 236 235 235 235 236 236 236 236 235 235 236 237 238 239
280 279 279 278 278 277 277 277 276 276 275 273 272 271 270 268 267 267 267 266 266 264 263 262 260 259 257 256 255 254 254 253 252 252 252 251 251 251 250 248 248 248 248 248 247 247 246 245 244 243 242 240 239 238 238 238 237 237 237 236 236 235 235 236 236 236 235 235 234 235 235 235 235 235 235 235 235 235 235 235 234 234 235 236 237 239
280 279 279 278 277 277 276 276 275 275 274 273 272 271 270 269 268 267 266 265 265 264 264 263 261 259 257 256 254 253 252 251 251 250 250 251 251 250 249 248 247 247 247 247 246 246 245 245 244 243 242 240 238 237 236 236 236 236 236 235 235 234 234 235 235 235 234 234 234 234 234 234 234 234 234 234 234 234 234 234 233 233 234 235 237 238
280 279 279 278 277 277 276 275 274 274 273 272 271 271 270 269 268 267 266 265 264 263 263 262 260 259 257 255 254 252 251 250 249 249 249 249 250 249 248 247 246 246 246 246 245 244 244 243 243 242 241 240 238 236 235 235 235 235 234 234 234 233 233 234 234 234 234 233 233 233 233 233 233 233 233 233 233 233 233 232 232 233 234 235 237 238
279 279 278 278 277 277 276 275 275 274 273 272 271 270 269 268 267 266 265 264 263 262 261 260 259 258 257 255 253 251 250 249 248 247 247 248 248 248 247 246 245 245 245 245 244 243 242 242 242 241 240 240 238 237 235 234 234 233 233 233 233 232 232 233 233 233 233 232 232 232 232 232 232 233 233 233 232 232 231 231 231 232 233 235 237 238
279 278 278 277 277 276 276 275 274 274 273 272 271 270 269 267 266 265 264 263 262 261 259 259 258 257 256 254 252 250 248 247 247 246 245 246 247 247 246 245 244 243 243 243 243 242 241 241 240 240 239 239 238 236 235 233 233 232 232 232 231 231 231 231 232 232 232 231 231 231 231 231 232 232 232 231 231 230 230 230 230 231 233 234 236 237
279 278 278 277 276 276 275 275 274 273 273 272 271 270 269 267 266 264 264 263 261 260 258 258 257 255 254 253 251 249 247 246 245 244 244 244 245 245 244 243 242 242 242 242 242 241 240 240 239 239 238 238 237 236 234 233 232 232 231 230 230 230 230 230 230 231 230 230 230 230 230 230 230 230 230 230 230 229 229 229 230 231 232 234 235 236
280 279 278 277 277 276 275 274 274 273 272 271 270 269 268 267 265 264 264 262 261 259 257 256 255 253 252 252 251 249 247 244 243 242 241 242 243 244 243 242 241 240 240 240 240 240 240 239 238 237 237 236 236 235 234 232 231 231 231 230 230 229 229 229 229 229 229 229 229 229 229 229 229 229 229 229 229 228 228 228 229 230 231 233 234 235
280 279 278 277 277 276 275 275 274 273 272 271 270 268 267 266 265 264 263 262 260 258 256 255 253 251 250 250 250 249 247 245 242 241 240 240 242 242 241 241 240 239 238 238 238 239 239 238 237 236 235 235 234 234 232 231 230 230 230 229 229 229 228 228 228 228 228 228 227 227 227 228 228 228 228 228 227 227 227 227 228 229 230 231 232 233
280 279 278 277 276 275 275 274 274 273 272 271 269 268 266 265 264 263 262 261 259 257 256 254 252 250 248 248 248 248 248 245 243 240 239 239 241 242 241 240 239 239 237 237 237 237 237 237 236 235 234 233 233 232 231 230 229 228 228 228 228 228 227 227 227 227 227 226 226 226 226 226 226 227 227 227 226 226 225 226 226 228 229 230 231 231
281 279 278 277 276 275 274 273 273 272 272 271 269 268 266 265 263 262 261 260 258 257 255 253 251 249 247 247 247 247 247 246 243 240 238 239 240 241 240 239 238 238 237 236 236 236 236 235 234 233 232 232 231 231 230 228 227 227 227 226 226 226 226 226 226 226 225 225 225 225 225 225 225 225 225 225 225 224 224 225 226 227 228 229 230 230
281 280 279 278 277 276 274 273 273 272 271 270 269 268 266 264 263 261 260 259 257 256 254 253 251 249 247 246 246 247 247 245 243 240 239 239 240 240 239 238 237 236 235 235 235 235 235 234 233 232 232 231 230 229 228 227 226 226 226 225 225 225 225 225 225 225 224 224 224 224 224 224 224 224 224 224 224 223 223 224 225 226 227 229 229 229
281 280 279 278 277 276 275 274 273 271 271 270 269 267 266 264 262 261 259 257 256 255 254 253 251 249 247 246 245 246 245 244 242 240 239 239 239 239 238 238 237 235 234 234 233 233 233 233 232 231 231 229 228 228 226 226 225 224 224 224 224 224 224 224 224 223 223 223 223 223 223 223 223 223 223 223 223 223 223 224 224 226 227 228 229 229
282 281 279 278 277 276 274 273 272 271 270 269 268 267 265 264 262 260 258 256 255 253 253 252 251 249 247 246 245 245 245 244 242 240 239 238 238 238 238 237 236 234 233 232 232 232 232 232 231 230 229 228 227 226 225 224 223 223 223 223 223 223 223 223 223 222 222 221 222 222 222 222 222 222 223 223 222 222 222 223 224 225 226 227 227 227
282 281 280 279 277 276 274 273 272 271 270 269 268 266 265 263 261 258 256 255 253 252 251 251 250 249 248 246 246 245 245 244 242 240 238 237 237 237 237 237 235 234 232 231 231 231 231 231 230 230 229 227 226 225 224 223 222 221 221 221 221 222 222 222 221 221 220 220 220 221 221 221 221 221 222 221 221 221 221 222 223 224 225 226 226 225
283 282 280 279 278 276 275 274 272 271 270 268 267 266 264 262 260 258 255 254 252 251 250 249 249 248 248 247 246 245 244 243 242 239 237 237 236 236 236 236 234 233 231 230 229 229 229 229 229 228 228 227 225 224 222 221 220 220 220 220 220 221 221 221 220 219 219 219 219 219 219 219 220 220 220 221 221 221 221 222 222 223 224 225 225 224
283 282 281 280 278 277 275 274 273 271 270 268 267 266 264 262 260 258 255 253 251 250 249 248 248 247 247 246 245 244 242 242 241 239 238 236 235 235 234 234 233 232 231 229 229 228 228 228 228 227 226 225 224 222 221 220 219 219 219 219 219 220 220 220 219 218 218 217 217 217 217 218 218 219 220 220 220 220 220 221 221 222 223 224 223 223
284 283 282 281 279 278 276 275 273 272 270 268 267 266 264 262 260 258 255 253 251 250 249 248 248 247 246 245 244 242 241 240 240 239 238 236 235 234 233 232 231 230 229 228 228 227 228 228 227 226 225 223 222 221 220 219 219 218 218 218 218 219 219 218 218 218 217 217 216 216 216 216 217 218 219 219 220 220 220 220 220 221 222 223 222 222
285 284 283 282 281 279 278 276 275 273 271 269 267 266 264 262 260 258 255 253 251 250 250 249 248 246 245 244 242 240 239 238 238 237 236 235 233 233 232 231 230 229 228 227 226 227 227 227 226 225 224 223 221 220 219 219 218 217 217 217 217 218 217 217 217 217 216 216 216 215 215 215 215 216 217 218 219 219 219 219 220 221 222 222 222 222
285 284 284 283 282 281 279 277 276 273 271 270 268 266 264 262 260 257 255 253 252 250 249 248 247 246 244 243 241 239 238 237 236 236 235 234 232 231 231 230 230 228 227 225 225 225 226 226 225 224 223 221 220 219 219 218 218 217 217 217 216 216 216 217 217 216 215 215 215 214 213 214 215 215 216 217 218 218 218 218 219 220 221 221 221 222
285 284 284 283 282 280 279 277 275 273 271 270 268 266 264 262 259 257 255 253 252 250 249 248 246 245 243 242 240 238 237 235 235 234 234 233 232 231 230 229 229 227 226 224 224 224 225 225 224 223 222 221 220 219 218 217 217 217 217 216 215 214 215 215 215 215 215 214 213 213 212 213 214 214 215 216 216 217 217 218 218 219 220 220 221 221
287 286 285 284 282 281 279 277 275 273 271 269 267 265 264 261 259 256 254 253 251 250 249 247 246 244 243 241 239 237 236 234 233 233 233 232 231 230 229 228 227 226 224 223 222 222 223 223 223 222 221 220 220 219 218 217 216 216 216 215 215 214 214 214 214 213 214 213 212 212 211 212 213 213 214 215 215 216 216 217 218 218 219 219 220 221
290 289 288 286 284 282 279 277 275 273 270 268 266 265 263 261 258 255 253 252 250 249 248 247 245 244 242 240 238 236 234 232 231 231 231 230 229 228 227 226 225 224 223 222 221 221 221 221 220 220 220 220 220 219 218 217 216 215 215 215 215 215 215 214 213 212 212 212 211 210 210 211 212 212 212 213 214 215 215 216 217 217 218 218 219 220
293 292 290 288 285 282 280 277 275 272 270 268 266 264 262 260 257 255 253 251 249 248 247 246 245 243 241 239 236 234 231 230 229 228 228 228 227 225 224 223 222 222 221 220 220 220 220 219 219 218 218 219 219 219 218 216 215 215 214 214 214 214 214 213 212 212 211 210 209 208 209 210 210 211 211 212 212 213 214 215 215 216 217 218 219 220
293 292 291 289 286 283 280 277 274 271 269 267 265 264 262 260 257 254 252 250 248 247 246 245 244 242 240 237 234 231 229 227 226 226 226 225 224 222 221 221 220 219 218 218 219 219 219 218 217 217 217 217 218 218 218 216 215 214 213 213 213 213 212 212 212 211 210 208 207 207 208 209 209 210 210 211 211 212 213 214 215 216 216 217 218 219
292 292 291 289 287 284 281 277 274 270 268 266 264 262 261 259 256 254 252 250 247 246 245 243 242 239 237 234 231 229 227 226 225 224 224 223 221 219 218 218 217 217 216 217 218 218 217 216 216 216 217 217 218 217 216 215 214 213 213 212 212 212 211 211 211 211 210 208 207 207 208 208 208 209 209 209 210 211 211 213 214 215 216 217 217 217
291 291 290 289 287 284 281 277 274 270 267 265 263 261 260 258 256 254 251 249 246 244 243 241 238 236 234 231 229 227 224 223 222 222 222 220 218 216 214 214 213 213 214 215 216 215 214 213 214 215 216 217 217 216 215 214 213 212 211 212 211 211 210 210 210 210 208 207 206 207 207 208 208 208 208 208 209 209 210 211 213 214 215 216 216 215
291 291 290 288 285 283 280 277 273 270 267 264 262 260 259 257 255 253 250 247 245 242 240 237 235 233 231 229 226 223 219 217 217 218 219 218 215 212 210 210 209 209 210 211 211 211 210 210 212 214 215 216 216 215 213 212 211 210 210 210 210 210 209 209 209 208 206 206 206 207 207 207 207 208 208 208 208 209 209 211 212 213 214 214 214 213
292 291 290 287 285 282 279 276 273 270 266 264 261 259 257 255 253 251 248 245 242 239 236 233 231 229 227 225 221 216 213 212 213 214 216 215 212 208 206 206 206 207 207 208 208 208 207 208 209 211 213 214 215 214 212 210 209 208 208 208 208 208 208 208 207 206 205 205 206 206 206 206 206 206 206 207 207 208 209 210 211 212 212 212 212 211